timestamp,surface_pressure_avg,surface_temp_avg,battery_voltage,lat,long
2023-01-04 00:09:00+00:00,290.1764,3.8,12.65,47.84626,-54.09684
2023-01-04 00:19:00+00:00,282.6281,3.8,12.65,47.84626,-54.09684
2023-01-04 00:29:00+00:00,276.5947,3.8,12.65,47.84626,-54.09684
2023-01-04 00:39:00+00:00,269.9915,3.8,12.65,47.84626,-54.09684
2023-01-04 00:49:00+00:00,261.0381,3.8,12.65,47.84626,-54.09684
2023-01-04 00:59:00+00:00,254.5614,3.8,12.65,47.84626,-54.09684
2023-01-04 01:09:00+00:00,246.6264,3.8,12.65,47.84626,-54.09684
2023-01-04 01:19:00+00:00,233.683,3.8,12.57,47.84626,-54.09684
2023-01-04 01:29:00+00:00,225.3748,3.8,12.57,47.84626,-54.09684
2023-01-04 01:39:00+00:00,227.3198,3.8,12.57,47.84626,-54.09684
2023-01-04 01:49:00+00:00,225.5147,3.8,12.57,47.84626,-54.09684
2023-01-04 01:59:00+00:00,217.7448,3.8,12.57,47.84626,-54.09684
2023-01-04 02:09:00+00:00,213.9481,3.8,12.57,47.84626,-54.09684
2023-01-04 02:19:00+00:00,216.4464,3.82,12.57,47.84626,-54.09684
2023-01-04 02:29:00+00:00,212.4998,3.84,12.57,47.84626,-54.09684
2023-01-04 02:39:00+00:00,208.1148,3.84,12.57,47.84626,-54.09684
2023-01-04 02:49:00+00:00,210.9098,3.83,12.57,47.84626,-54.09684
2023-01-04 02:59:00+00:00,212.1081,3.83,12.57,47.84626,-54.09684
2023-01-04 03:09:00+00:00,208.9364,3.84,12.57,47.84626,-54.09684
2023-01-04 03:19:00+00:00,207.0064,3.85,12.57,47.84626,-54.09684
2023-01-04 03:29:00+00:00,211.5831,3.83,12.57,47.84626,-54.09684
2023-01-04 03:39:00+00:00,210.7281,3.84,12.57,47.84626,-54.09684
2023-01-04 03:49:00+00:00,209.4481,3.84,12.57,47.84626,-54.09684
2023-01-04 03:59:00+00:00,217.3514,3.82,12.57,47.84626,-54.09684
2023-01-04 04:09:00+00:00,224.0314,3.8,12.57,47.84626,-54.09684
2023-01-04 04:19:00+00:00,221.7365,3.8,12.57,47.84626,-54.09684
2023-01-04 04:29:00+00:00,222.4715,3.8,12.57,47.84626,-54.09684
2023-01-04 04:39:00+00:00,230.3764,3.8,12.57,47.84626,-54.09684
2023-01-04 04:49:00+00:00,229.4864,3.8,12.57,47.84626,-54.09684
2023-01-04 04:59:00+00:00,223.5315,3.79,12.57,47.84626,-54.09684
2023-01-04 05:09:00+00:00,226.5814,3.75,12.57,47.84626,-54.09684
2023-01-04 05:19:01+00:00,235.8931,3.7,12.57,47.84626,-54.09684
2023-01-04 05:29:01+00:00,238.8531,3.7,12.57,47.84626,-54.09684
2023-01-04 05:39:01+00:00,242.0481,3.67,12.57,47.84626,-54.09684
2023-01-04 05:49:01+00:00,247.9431,3.6,12.57,47.84626,-54.09684
2023-01-04 05:59:01+00:00,251.8814,3.6,12.57,47.84626,-54.09684
2023-01-04 06:09:01+00:00,250.9631,3.6,12.57,47.84626,-54.09684
2023-01-04 06:19:00+00:00,252.6197,3.59,12.57,47.84626,-54.09684
2023-01-04 06:29:00+00:00,262.3931,3.53,12.57,47.84626,-54.09684
2023-01-04 06:39:00+00:00,268.7514,3.5,12.57,47.84626,-54.09684
2023-01-04 06:49:00+00:00,269.768,3.5,12.57,47.84626,-54.09684
2023-01-04 06:59:00+00:00,272.4431,3.4,12.57,47.84626,-54.09684
2023-01-04 07:09:00+00:00,277.5597,3.4,12.57,47.84626,-54.09684
2023-01-04 07:19:00+00:00,280.6697,3.53,12.57,47.84626,-54.09684
2023-01-04 07:29:00+00:00,287.0464,3.7,12.57,47.84626,-54.09684
2023-01-04 07:39:00+00:00,297.8714,3.7,12.57,47.84626,-54.09684
2023-01-04 07:49:00+00:00,301.6014,3.71,12.57,47.84626,-54.09684
2023-01-04 07:59:00+00:00,305.7163,3.77,12.57,47.84626,-54.09684
2023-01-04 08:09:00+00:00,313.2364,3.77,12.57,47.84626,-54.09684
2023-01-04 08:19:00+00:00,321.5347,3.78,12.57,47.84626,-54.09684
2023-01-04 08:29:00+00:00,322.1647,3.8,12.57,47.84626,-54.09684
2023-01-04 08:39:00+00:00,326.0813,3.82,12.57,47.84626,-54.09684
2023-01-04 08:49:00+00:00,334.7279,3.83,12.57,47.84626,-54.09684
2023-01-04 08:59:00+00:00,339.1362,3.84,12.57,47.84626,-54.09684
2023-01-04 09:09:00+00:00,335.5746,3.87,12.57,47.84626,-54.09684
2023-01-04 09:19:00+00:00,335.3362,3.88,12.57,47.84626,-54.09684
2023-01-04 09:29:00+00:00,339.343,3.87,12.57,47.84626,-54.09684
2023-01-04 09:39:00+00:00,343.9113,3.87,12.57,47.84626,-54.09684
2023-01-04 09:49:00+00:00,347.6746,3.87,12.57,47.84626,-54.09684
2023-01-04 09:59:00+00:00,349.2813,3.87,12.57,47.84626,-54.09684
2023-01-04 10:09:00+00:00,346.7546,3.86,12.57,47.84626,-54.09684
2023-01-04 10:19:00+00:00,347.603,3.83,12.57,47.84626,-54.09684
2023-01-04 10:29:00+00:00,348.9496,3.83,12.57,47.84626,-54.09684
2023-01-04 10:39:00+00:00,349.598,3.83,12.57,47.84626,-54.09684
2023-01-04 10:49:00+00:00,350.9213,3.84,12.57,47.84626,-54.09684
2023-01-04 10:59:00+00:00,354.6263,3.84,12.57,47.84626,-54.09684
2023-01-04 11:09:00+00:00,354.7697,3.8,12.57,47.84626,-54.09684
2023-01-04 11:19:00+00:00,349.233,3.8,12.57,47.84626,-54.09684
2023-01-04 11:29:00+00:00,350.4246,3.82,12.57,47.84626,-54.09684
2023-01-04 11:39:00+00:00,346.3829,3.8,12.57,47.84626,-54.09684
2023-01-04 11:49:00+00:00,340.8529,3.8,12.57,47.84626,-54.09684
2023-01-04 11:59:00+00:00,339.7729,3.8,12.57,47.84626,-54.09684
2023-01-04 12:09:00+00:00,339.968,3.8,12.57,47.84626,-54.09684
2023-01-04 12:19:01+00:00,331.5463,3.8,12.57,47.84626,-54.09684
2023-01-04 12:29:01+00:00,320.77299999999997,3.8,12.57,47.84626,-54.09684
2023-01-04 12:39:01+00:00,315.4263,3.8,12.57,47.84626,-54.09684
2023-01-04 12:49:01+00:00,306.6447,3.8,12.57,47.84626,-54.09684
2023-01-04 12:59:01+00:00,296.283,3.8,12.57,47.84626,-54.09684
2023-01-04 13:09:01+00:00,291.7413,3.8,12.57,47.84626,-54.09684
2023-01-04 13:19:00+00:00,284.6714,3.8,12.57,47.84626,-54.09684
2023-01-04 13:29:00+00:00,272.7298,3.8,12.57,47.84626,-54.09684
2023-01-04 13:39:00+00:00,264.6198,3.8,12.57,47.84626,-54.09684
2023-01-04 13:49:00+00:00,267.2547,3.8,12.57,47.84626,-54.09684
2023-01-04 13:59:00+00:00,261.8864,3.8,12.57,47.84626,-54.09684
2023-01-04 14:09:00+00:00,250.3164,3.8,12.57,47.84626,-54.09684
2023-01-04 14:19:00+00:00,251.8064,3.8,12.57,47.84626,-54.09684
2023-01-04 14:29:00+00:00,257.0531,3.79,12.57,47.84626,-54.09684
2023-01-04 14:39:00+00:00,247.8214,3.78,12.57,47.84626,-54.09684
2023-01-04 14:49:00+00:00,237.3048,3.78,12.57,47.84626,-54.09684
2023-01-04 14:59:00+00:00,241.2598,3.74,12.57,47.84626,-54.09684
2023-01-04 15:09:00+00:00,238.8214,3.74,12.57,47.84626,-54.09684
2023-01-04 15:19:00+00:00,229.9481,3.73,12.57,47.84626,-54.09684
2023-01-04 15:29:00+00:00,228.3314,3.7,12.57,47.84626,-54.09684
2023-01-04 15:39:00+00:00,230.4064,3.7,12.57,47.84626,-54.09684
2023-01-04 15:49:00+00:00,224.6397,3.7,12.57,47.84626,-54.09684
2023-01-04 15:59:00+00:00,220.6564,3.73,12.57,47.84626,-54.09684
2023-01-04 16:09:00+00:00,224.7631,3.76,12.57,47.84626,-54.09684
2023-01-04 16:19:00+00:00,225.1248,3.7,12.57,47.84626,-54.09684
2023-01-04 16:29:00+00:00,221.8065,3.7,12.57,47.84626,-54.09684
2023-01-04 16:39:00+00:00,223.7381,3.6,12.57,47.84626,-54.09684
2023-01-04 16:49:00+00:00,227.0798,3.59,12.57,47.84626,-54.09684
2023-01-04 16:59:00+00:00,225.6597,3.5,12.57,47.84626,-54.09684
2023-01-04 17:09:00+00:00,226.4031,3.5,12.57,47.84626,-54.09684
2023-01-04 17:19:00+00:00,230.6331,3.4,12.57,47.84626,-54.09684
2023-01-04 17:29:00+00:00,233.4014,3.35,12.57,47.84626,-54.09684
2023-01-04 17:39:00+00:00,229.7414,3.3,12.57,47.84626,-54.09684
2023-01-04 17:49:00+00:00,229.6948,3.3,12.57,47.84626,-54.09684
2023-01-04 17:59:00+00:00,231.0281,3.3,12.57,47.84626,-54.09684
2023-01-04 18:09:00+00:00,229.2298,3.3,12.57,47.84626,-54.09684
2023-01-04 18:19:00+00:00,231.9131,3.32,12.57,47.84626,-54.09684
2023-01-04 18:29:00+00:00,243.7081,3.35,12.57,47.84626,-54.09684
2023-01-04 18:39:00+00:00,249.8297,3.37,12.57,47.84626,-54.09684
2023-01-04 18:49:00+00:00,247.3931,3.37,12.57,47.84626,-54.09684
2023-01-04 18:59:00+00:00,248.8681,3.38,12.57,47.84626,-54.09684
2023-01-04 19:09:00+00:00,256.1748,3.38,12.57,47.84626,-54.09684
2023-01-04 19:19:00+00:00,260.8397,3.38,12.57,47.84626,-54.09684
2023-01-04 19:29:00+00:00,260.7814,3.36,12.57,47.84626,-54.09684
2023-01-04 19:39:00+00:00,263.2331,3.35,12.57,47.84626,-54.09684
2023-01-04 19:49:00+00:00,267.6281,3.35,12.57,47.84626,-54.09684
2023-01-04 19:59:00+00:00,267.1081,3.32,12.57,47.84626,-54.09684
2023-01-04 20:09:00+00:00,273.3964,3.3,12.57,47.84626,-54.09684
2023-01-04 20:19:00+00:00,288.5914,3.3,12.49,47.84626,-54.09684
2023-01-04 20:29:00+00:00,302.5563,3.3,12.49,47.84626,-54.09684
2023-01-04 20:39:00+00:00,304.1598,3.3,12.49,47.84626,-54.09684
2023-01-04 20:49:00+00:00,309.8729,3.3,12.49,47.84626,-54.09684
2023-01-04 20:59:00+00:00,317.4213,3.3,12.49,47.84626,-54.09684
2023-01-04 21:09:00+00:00,319.2663,3.3,12.49,47.84626,-54.09684
2023-01-04 21:19:01+00:00,319.4297,3.3,12.49,47.84626,-54.09684
2023-01-04 21:29:01+00:00,320.6597,3.3,12.49,47.84626,-54.09684
2023-01-04 21:39:01+00:00,321.5997,3.3,12.49,47.84626,-54.09684
2023-01-04 21:49:01+00:00,323.1764,3.3,12.49,47.84626,-54.09684
2023-01-04 21:59:01+00:00,326.6014,3.3,12.49,47.84626,-54.09684
2023-01-04 22:09:01+00:00,328.2146,3.3,12.49,47.84626,-54.09684
2023-01-04 22:19:01+00:00,332.1047,3.3,12.49,47.84626,-54.09684
2023-01-04 22:29:01+00:00,333.6779,3.3,12.49,47.84626,-54.09684
2023-01-04 22:39:01+00:00,337.3296,3.3,12.49,47.84626,-54.09684
2023-01-04 22:49:01+00:00,342.7429,3.3,12.49,47.84626,-54.09684
2023-01-04 22:59:01+00:00,337.973,3.3,12.49,47.84626,-54.09684
2023-01-04 23:09:01+00:00,328.5964,3.3,12.49,47.84626,-54.09684
2023-01-04 23:19:00+00:00,324.8513,3.3,12.49,47.84626,-54.09684
2023-01-04 23:29:00+00:00,323.543,3.3,12.49,47.84626,-54.09684
2023-01-04 23:39:00+00:00,314.7713,3.3,12.49,47.84626,-54.09684
2023-01-04 23:49:00+00:00,308.0964,3.3,12.49,47.84626,-54.09684
2023-01-04 23:59:00+00:00,307.9413,3.3,12.49,47.84626,-54.09684
